CALSPHERE 1 1 00900U 64063C 26206.61068073 .00000530 00000+0 52925-3 0 9998 2 00900 90.2201 72.6693 0025249 171.2310 220.8101 13.76660121 76713 CALSPHERE 2 1 00902U 64063E 26206.63166080 .00000052 00000+0 64039-4 0 9998 2 00902 90.2330 76.7112 0020425 113.1852 277.4677 13.52902795861466 LCS 1 1 01361U 65034C 26206.64421220 .00000000 00000+0 -10501-2 0 9995 2 01361 32.1418 85.7090 0012334 258.6563 101.2549 9.89310708213697 TEMPSAT 1 1 01512U 65065E 26206.49616160 .00000045 00000+0 71522-4 0 9999 2 01512 89.9981 212.5950 0070995 139.8314 13.1516 13.33595955965159 CALSPHERE 4A 1 01520U 65065H 26206.51101593 .00000073 00000+0 12350-3 0 9994 2 01520 89.8984 122.1109 0070241 357.2670 177.2419 13.36284577967825 OPS 5712 (P/L 160) 1 02826U 67053A 26206.55813459 .00006913 00000+0 96216-3 0 9990 2 02826 69.9178 304.2100 0002929 298.9933 61.0921 14.78189097 71905 OPS 5712 (P/L 153) 1 02874U 67053H 26206.00457096 .00000036 00000+0 64026-4 0 9999 2 02874 69.9737 34.2463 0006281 166.9328 193.1942 13.96833514 12070 RIGIDSPHERE 2 (LCS 4) 1 05398U 71067E 26206.60626913 .00000745 00000+0 23535-3 0 9991 2 05398 87.6246 328.1421 0062170 105.0507 255.7583 14.37913616879409 COSMOS 2493 (SKRL-756 1) 1 39490U 13078A 26206.58499111 .00003081 00000+0 23067-3 0 9990 2 39490 82.4100 223.6155 0014651 111.6752 248.6035 15.02324634683720 COSMOS 2494 (SKRL-756 2) 1 39491U 13078B 26206.58017941 .00003100 00000+0 21552-3 0 9997 2 39491 82.4106 212.8485 0017500 76.8421 283.4757 15.05062148684589